Preview of NWS' New Version of Forecast
This preview is not operational and should not be used for support decisions.

Regional Weather Roundup (RWR)

Issued by National Weather Service (NWS)

                            
000
ASUS45 KBOU 221610
RWRCO 

WEATHER ROUNDUP FOR COLORADO
NATIONAL WEATHER SERVICE DENVER/BOULDER CO
1000 AM MDT MON APR 22 2019

NOTE: "FAIR" INDICATES FEW OR NO CLOUDS BELOW 12000 FEET WITH NO
SIGNIFICANT WEATHER AND/OR OBSTRUCTIONS TO VISIBILITY.

COZ001>005-013-030-031-221700-
...NORTHWEST COLORADO...
  
CITY           SKY/WX    TMP DP  RH WIND       PRES   REMARKS
CRAIG          CLOUDY    46  39  76 CALM      30.15F                  
HAYDEN         FAIR      44  38  79 W5        30.15F                  
MEEKER         FAIR      46  38  73 SW5       30.13S                  
RANGELY        CLOUDY    49  38  67 E13       30.14R                  
RABBIT EARS PA FAIR      36  28  75 SE7       30.24S                  
STEAMBOAT SPGS FAIR      44  36  73 CALM      30.13F                  
WALDEN         CLOUDY    37  34  87 CALM      30.22S                  
$$

COZ006>008-011-221700-
...WEST CENTRAL VALLEYS...
  
CITY           SKY/WX    TMP DP  RH WIND       PRES   REMARKS
GRAND JUNCTION FAIR      59  40  49 CALM      30.05S                  
MONTROSE       FAIR      54  32  43 NW6       30.10S                  
EAGLE          FAIR      46  30  53 CALM      30.16F                  
RIFLE          FAIR      49  37  63 CALM      30.09F                  
DELTA          FAIR      56  33  41 CALM      30.08S                  
NUCLA          FAIR      54  27  35 NW6       30.11S                  
$$

COZ017>023-064>068-221700-
...SOUTHWEST COLORADO...
  
CITY           SKY/WX    TMP DP  RH WIND       PRES   REMARKS
DURANGO        FAIR      54  22  28 VRB3      30.12S                  
CORTEZ         FAIR      55  29  36 W3        30.08S                  
PAGOSA SPRINGS FAIR      52  20  29 S7        30.17S                  
TELLURIDE      FAIR      50  18  27 CALM      30.18S                  
WOLF CREEK PAS FAIR      34  14  44 S9G17     30.35S WCI  26          
$$

COZ009-010-012-014-032>034-037-058>063-221700-
...CENTRAL COLORADO...
  
CITY           SKY/WX    TMP DP  RH WIND       PRES   REMARKS
ASPEN          FAIR      49  24  37 N7        30.13S                  
BUENA VISTA    CLOUDY    46  32  58 CALM      30.23S                  
COPPER MTN     FAIR      34  23  64 SE12G18   30.31S WCI  25          
BERTHOUD PASS  PTSUNNY   25  14  63 SE9       30.32S WCI  15          
COTTONWOOD PAS CLOUDY    37  32  81 CALM      30.27S                  
GUNNISON       FAIR      45  26  47 CALM      30.17F                  
GRANBY         NOT AVBL                                               
KREMMLING      FAIR      41  32  70 CALM      30.19F                  
LEADVILLE      FAIR      35  27  72 S8        30.25S WCI  29          
MONARCH PASS   CLOUDY    28  27  93 E10       30.41R WCI  19          
SALIDA         PTSUNNY   49  36  61 CALM      30.29F                  
SUNLIGHT       FAIR      39  19  45 E3        30.27S                  
WILKERSON PASS CLOUDY    32  30  93 SW6       30.33S FOG     WCI  26  
$$

COZ069>075-221700-
...SAN LUIS VALLEY/SANGRE DE CRISTO MOUNTAINS...
  
CITY           SKY/WX    TMP DP  RH WIND       PRES   REMARKS
ALAMOSA        FAIR      53  18  25 VRB5      30.15F                  
DEL NORTE      FAIR      50  24  36 E6        30.17F                  
LA VETA PASS   NOT AVBL                                               
SAGUACHE       FAIR      50  21  32 CALM      30.18F                  
$$

COZ035-036-038>040-221700-
...NORTHERN COLORADO FRONT RANGE...
  
CITY           SKY/WX    TMP DP  RH WIND       PRES   REMARKS
DENVER INTL AP CLOUDY    41  39  93 NE13      30.25F FOG              
AURORA         DRIZZLE   40  40 100 N8        30.26R FOG              
FRONT RANGE AP FOG       41  41 100 N13       30.27S VSB 1            
ERIE MUNI ARPT DRIZZLE   43  39  85 NE7       30.32S                  
BOULDER MUN AP CLOUDY    41  41 100 NE7       30.26S                  
CENTENNIAL     CLOUDY    41  39  93 N9        30.25S FOG              
BROOMFIELD     LGT RAIN  41  39  93 N9        30.27S                  
FORT COLLINS   LGT RAIN  42  40  92 NE8       30.27S FOG              
LONGMONT       DRIZZLE   46  40  81 E6        30.29S                  
$$

COZ041-046-047-076>085-087-088-221700-
...PIKES PEAK/PALMER DIVIDE AND SOUTHERN FOOTHILLS...
  
CITY           SKY/WX    TMP DP  RH WIND       PRES   REMARKS
COLO. SPRINGS  PTSUNNY   49  35  58 N10       30.23R                  
A. F. ACADEMY  CLOUDY    44  37  75 N15       30.21R                  
SCHRIEVER AFB  NOT AVBL                                               
CHEYENNE MTN   CLOUDY    42  36  80 N12       30.18R                  
ELLICOTT         N/A    N/A N/A N/A N17       30.21R                  
FALCON         CLOUDY    45  35  66 N17G25    30.24R                  
FORT CARSON    CLOUDY    48  36  63 N9        30.22R                  
LIMON          CLOUDY    40  39  97 N21       30.24R                  
MONUMENT HILL  CLOUDY    36  36 100 N8        30.26R                  
CANON CITY     NOT AVBL                                               
WALSENBURG     NOT AVBL                                               
TRINIDAD       CLOUDY    49  41  74 E7        30.23R                  
$$

COZ042>045-048>051-090-091-221700-
...NORTHEAST COLORADO...
  
CITY           SKY/WX    TMP DP  RH WIND       PRES   REMARKS
GREELEY ARPT   CLOUDY    43  37  79 NE9       30.29R                  
AKRON          CLOUDY    41  35  79 N18       30.26R                  
BURLINGTON     CLOUDY    49  38  65 N25G35    30.20S                  
WRAY           CLOUDY    48  36  61 N21G30    30.23R                  
YUMA           NOT AVBL                                               
STERLING       CLOUDY    43  36  75 N14       30.26S                  
HOLYOKE        PTSUNNY   46  37  71 N22G29    30.24S                  
FORT MORGAN      N/A     42  33  70 N14       30.28S                  
$$

COZ086-089-092>099-221700-
...SOUTHEAST COLORADO...
  
CITY           SKY/WX    TMP DP  RH WIND       PRES   REMARKS
PUEBLO         CLOUDY    52  40  63 SE7       30.21R                  
LA JUNTA       CLOUDY    53  39  59 N12       30.22R                  
LAMAR          CLOUDY    51  40  65 N20       30.20R                  
SPRINGFIELD      N/A     52  41  66 N20G26    30.19R                  
$$